Printer-friendly version

IAU Minor Planet Center

Minor Planet Center

MPEC 2006-W88 : 2006 WX29

The following Minor Planet Electronic Circular may be linked-to from your own Web pages, but must not otherwise be redistributed electronically.


Read MPEC 2006-W87 Read MPEC 2006-W89


M.P.E.C. 2006-W88                                Issued 2006 Nov. 26, 02:55 UT

     The Minor Planet Electronic Circulars contain information on unusual
         minor planets and routine data on comets.  They are published
   on behalf of Commission 20 of the International Astronomical Union by the
          Minor Planet Center, Smithsonian Astrophysical Observatory,
                          Cambridge, MA 02138, U.S.A.

             Prepared using the Tamkin Foundation Computer Network

                              MPC@CFA.HARVARD.EDU
          URL http://cfa-www.harvard.edu/iau/mpc.html  ISSN 1523-6714

                                   2006 WX29

Observations:
     K06W29X* C2006 11 23.15737 03 45 25.61 +18 13 17.0          20.9 V EW088691
     K06W29X  C2006 11 23.17474 03 45 29.29 +18 12 49.8          21.1 V EW088691
     K06W29X  C2006 11 23.19207 03 45 32.77 +18 12 23.8          21.2 V EW088691
     K06W29X  C2006 11 23.28923 03 45 46.62 +18 09 19.5          20.8 R EW088734
     K06W29X  C2006 11 23.29289 03 45 47.30 +18 09 13.3          20.5 R EW088734
     K06W29X  C2006 11 23.29728 03 45 48.06 +18 09 05.1          20.6 R EW088734
     K06W29X HC2006 11 24.30655 03 49 03.69 +17 48 29.9                 EW088291
     K06W29X HC2006 11 24.31098 03 49 03.94 +17 48 25.2                 EW088291
     K06W29X HC2006 11 24.31828 03 49 04.59 +17 48 18.7                 EW088291
     K06W29X HC2006 11 25.21777 03 50 55.43 +17 36 46.2                 EW088291
     K06W29X HC2006 11 25.22877 03 50 55.92 +17 36 38.3                 EW088291
     K06W29X HC2006 11 25.23780 03 50 56.37 +17 36 37.0                 EW088291

Observer details:
291 LPL/Spacewatch II.  Observer M. T. Read.  1.8-m f/2.7 reflector + CCD.
691 Steward Observatory, Kitt Peak.  Observer J. V. Scotti.  0.9-m f/3
    reflector + CCD.
734 Farpoint Observatory.  Observer G. Hug.  0.7-m reflector + CCD.

Orbital elements:
2006 WX29                                                Earth MOID = 0.0013 AU
Epoch 2006 Sept. 22.0 TT = JDT 2454000.5                MPC
M 355.77749              (2000.0)            P               Q
n   0.28088023     Peri.   95.68594     +0.90613911     +0.42139298
a   2.3091666      Node   239.39638     -0.40296269     +0.83371148
e   0.7288228      Incl.    2.43742     -0.12858067     +0.35686571
P   3.51           H   27.9           G   0.15           U   8
Residuals in seconds of arc
061123 691  0.0   0.6+    061123 734  0.1+  0.2-    061124 291  0.5+  0.6+
061123 691  0.3+  0.3-    061123 734  0.2-  0.7-    061125 291  0.1-  0.1+
061123 691  0.3+  0.1+    061124 291  0.7+  0.4+    061125 291  0.4-  2.1-
061123 734  0.3-  0.4-    061124 291  0.7-  0.0     061125 291  0.2+  1.5+

Ephemeris:
2006 WX29                a,e,i = 2.31, 0.73, 2                   q = 0.6262
Date    TT    R. A. (2000) Decl.     Delta      r     Elong.  Phase     V
2006 11 21    03 07.50   +22 04.8    0.00956  0.997   171.0     8.9    18.4
2006 11 22    03 36.46   +19 11.7    0.0217   1.009   176.9     3.0    19.9
2006 11 23    03 44.46   +18 19.7    0.0339   1.021   177.2     2.7    20.9
2006 11 24    03 48.28   +17 54.5    0.0461   1.033   176.7     3.2    21.6
2006 11 25    03 50.49   +17 39.8    0.0584   1.045   176.0     3.8    22.2
2006 11 26    03 51.95   +17 30.4    0.0707   1.058   175.3     4.4    22.7
2006 11 27    03 52.98   +17 23.8    0.0831   1.070   174.6     5.0    23.1
2006 11 28    03 53.76   +17 19.2    0.0955   1.082   173.8     5.7    23.4
2006 11 29    03 54.38   +17 15.7    0.108    1.094   172.9     6.4    23.7
2006 11 30    03 54.88   +17 13.2    0.120    1.106   172.1     7.1    24.0
2006 12 01    03 55.32   +17 11.3    0.133    1.118   171.2     7.8    24.3

Gareth V. Williams           (C) Copyright 2006 MPC           M.P.E.C. 2006-W88

Read MPEC 2006-W87 Read MPEC 2006-W89


Our Web policy. Index to the CBAT/MPC/ICQ pages.


Valid HTML 4.01!